Regional Weather Roundup
Issued by NWS

Home | Current Version | Previous Version | Text Only | Print | Product List | Glossary Off
Versions: 1 2 3 4 5 6 7 8 9 10 11 12 13 14 15 16 17 18 19 20 21 22 23 24 25 26 27 28 29 30 31 32 33 34 35 36 37 38 39 40 41 42 43 44 45 46 47 48 49 50

000
ASUS43 KMPX 261601
RWRMN
WEATHER ROUNDUP FOR MINNESOTA
NATIONAL WEATHER SERVICE TWIN CITIES/CHANHASSEN MN
1100 AM CDT THU MAR 26 2015


NOTE: "FAIR" INDICATES FEW OR NO CLOUDS BELOW 12,000 FEET WITH NO
SIGNIFICANT WEATHER AND/OR OBSTRUCTIONS TO VISIBILITY. N/A MEANS
CURRENT SKY AND/OR WEATHER CONDITIONS ARE NOT AVAILABLE.

MNZ060>063-068>070-261700-
   Twin Cities Metro

CITY           SKY/WX    TMP DP  RH WIND       PRES   REMARKS
TWIN CITIES    PTSUNNY   33  17  51 N15       30.12S WCI  23
ST PAUL        CLOUDY    32  17  54 NW20G25   30.13R WCI  20
CRYSTAL        PTSUNNY   33  16  49 NW14      30.11R WCI  23
BLAINE         CLOUDY    34  18  51 NW18      30.10S WCI  23
LAKEVILLE      CLOUDY    28  19  69 NW10      30.11S WCI  19
EDEN PRAIRIE   CLOUDY    31  20  63 NW13      30.12R WCI  21
SOUTH ST PAUL  CLOUDY    32  17  53 NW12      30.12R WCI  23
LAKE ELMO      CLOUDY    32  19  59 NW9       30.11R WCI  24
$$
MNZ001>005-007-008-013>017-022>024-027-028-261700-
   Northwest Minnesota

CITY           SKY/WX    TMP DP  RH WIND       PRES   REMARKS
BEMIDJI        PTSUNNY   25  10  53 N13G21    30.17R WCI  14
HALLOCK        MOSUNNY   25  18  74 N13       30.30R WCI  13
ROSEAU         SUNNY     21  10  63 N12       30.25S WCI   9
WARROAD        SUNNY     21   3  45 N13G20    30.24S WCI   9
THIEF RVR FALL SUNNY     25  14  63 N13       30.25R WCI  13
CROOKSTON      MOSUNNY   27  16  63 NE12G18   30.27S WCI  16
FOSSTON        MOSUNNY   27  12  54 N17       30.21R WCI  14
DETROIT LAKES  MIX PCPN  27  19  74 N8        30.20R WCI  18
MOORHEAD       FLURRIES  27  19  74 N20       30.25S WCI  13
PARK RAPIDS    CLOUDY    24  13  62 N14       30.15R WCI  12
MAHNOMEN       PTSUNNY   25  17  72 N17       30.20R WCI  12
$$
MNZ006-009>011-018-025>026-261700-
   North Central Minnesota

CITY           SKY/WX    TMP DP  RH WIND       PRES   REMARKS
BAUDETTE       SUNNY     20  10  65 N12       30.20R WCI   8
FLAG ISLAND    SUNNY     16   1  53 N14G20    30.24R WCI   1
INTL FALLS     PTSUNNY   20   7  57 NE9       30.18S WCI   9
WASKISH        MOSUNNY   25  14  63 NW7       30.19R WCI  17
BIG FORK       MOSUNNY   21   9  58 N10       30.16S WCI  10
LONGVILLE      CLOUDY    23  10  58 N8        30.16R WCI  14
GRAND RAPIDS   PTSUNNY   19   9  63 N12       30.13S WCI   7
ORR            MOSUNNY   19   3  49 NW8G18    30.13R WCI   9
COOK           SUNNY     18   5  57 N9        30.15R WCI   6
WALKER         CLOUDY    22  10  59 N12G17    30.16R WCI  11
$$
MNZ012-019>021-037-261700-
   Northeast Minnesota

CITY           SKY/WX    TMP DP  RH WIND       PRES   REMARKS
DULUTH         FLURRIES  23  12  62 N16G22    30.07S WCI  10
ELY            SUNNY     18   1  49 N7G18     30.11R WCI   8
HIBBING        MOSUNNY   21   7  54 N15       30.13R WCI   8
EVELETH        MOSUNNY   21   7  53 N12G18    30.12S WCI   9
DULUTH HARBOR  CLOUDY    28  14  54 CALM      30.13S
TWO HARBORS    PTSUNNY   27  14  59 NW6       30.08R WCI  20
SILVER BAY     FLURRIES  25  10  54 W9        30.08R WCI  15
GRAND MARAIS     N/A     23   6  48 NE13G25   30.11R WCI  11
G MARAIS ARPRT LGT SNOW  16   3  57 NW12G20   30.01R WCI   3
$$
MNZ029>031-032-039>041-046>048-054>057-064-261700-
   West Central Minnesota

CITY           SKY/WX    TMP DP  RH WIND       PRES   REMARKS
FERGUS FALLS   CLOUDY    27  16  63 NW14G24   30.23S WCI  15
WHEATON        MOSUNNY   27  18  69 N16G23    30.24S WCI  14
MORRIS         MOSUNNY   28  19  69 N16G22    30.19R WCI  17
ALEXANDRIA     CLOUDY    26  16  65 NW13      30.16S WCI  15
ELBOW LAKE     PTSUNNY   27  17  67 N16       30.19S WCI  14
WADENA         FLURRIES  25  18  74 NW10      30.15S WCI  15
GLENWOOD       PTSUNNY   27  19  74 NW13      30.16F WCI  16
APPLETON       CLOUDY    32  19  59 N16       30.20S WCI  21
BENSON         MOSUNNY   28  19  69 N14       30.19S WCI  17
ORTONVILLE     CLOUDY    28  19  69 N14       30.21R WCI  17
MADISON        PTSUNNY   32  21  64 N16       30.20S WCI  21
WILLMAR        FAIR      28  19  69 N12       30.18R WCI  18
$$
MNZ033>034-036-042>043-049>051-058-059-261700-
   Central Minnesota

CITY           SKY/WX    TMP DP  RH WIND       PRES   REMARKS
ST CLOUD       CLOUDY    29  18  63 NW12      30.13R WCI  19
SAUK CENTRE    CLOUDY    27  17  64 NW15      30.16S WCI  16
PAYNESVILLE    CLOUDY    25  18  74 W10       30.16S WCI  15
AITKIN         CLOUDY    28  14  54 N10G16    30.12R WCI  19
PINE RIVER     CLOUDY    23  12  63 NW10G20   30.18R WCI  12
BRAINERD       CLOUDY    25  14  63 N15       30.15R WCI  13
STAPLES        CLOUDY    25  14  63 N15       30.15R WCI  12
LONG PRAIRIE   CLOUDY    27  18  69 NW13      30.15S WCI  16
LITTLE FALLS   CLOUDY    30  16  55 NW9       30.14R WCI  22
LITCHFIELD     MOSUNNY   28  21  74 NW10      30.16R WCI  19
MAPLE LAKE     CLOUDY    32  20  62 NW9G16    30.15R WCI  24
$$
MNZ037-044-045-052-053-261700-
   East Central Minnesota

CITY           SKY/WX    TMP DP  RH WIND       PRES   REMARKS
PRINCETON      CLOUDY    32  19  59 NW13      30.12S WCI  22
MORA           CLOUDY    30  18  59 N10G21    30.13S WCI  21
CAMBRIDGE      CLOUDY    34  19  55 NW13G22   30.10R WCI  25
RUSH CITY      CLOUDY    30  17  60 N13       30.11S WCI  20
MOOSE LAKE     CLOUDY    28  14  54 N10G16    30.09S WCI  19
HINCKLEY       CLOUDY    30  19  64 N14       30.11S WCI  20
CLOQUET        MOSUNNY   25  10  54 NW16G24   30.09S WCI  12
MCGREGOR       CLOUDY    28  16  59 N14       30.13S WCI  17
$$
MNZ071>073-080-081-089-090-097-098-261700-
   Southwest Minnesota

CITY           SKY/WX    TMP DP  RH WIND       PRES   REMARKS
MONTEVIDEO     SUNNY     32  19  59 N16       30.20R WCI  21
GRANITE FALLS  SUNNY     32  20  61 NW15G22   30.20S WCI  21
CANBY          CLOUDY    31  23  73 N12       30.21R WCI  22
MARSHALL       CLOUDY    30  19  64 N17       30.19R WCI  18
REDWOOD FALLS  SUNNY     32  17  54 N14G21    30.18R WCI  22
OLIVIA         SUNNY     30  23  74 NW15      30.16S WCI  19
PIPESTONE      PTSUNNY   32  25  74 N6        30.16R WCI  26
WINDOM         MOSUNNY   34  23  64 NW20      30.15S WCI  22
WORTHINGTON    PTSUNNY   34  21  60 N14       30.17R WCI  24
JACKSON        MOSUNNY   34  23  64 NW21      30.15S WCI  22
TRACY          PTSUNNY   32  25  73 NW15      30.18S WCI  22
SLAYTON        PTSUNNY   31  22  67 NW10      30.17S WCI  22
$$
MNZ065>067-074>077-082>085-091>093-261700-
   South Central Minnesota

CITY           SKY/WX    TMP DP  RH WIND       PRES   REMARKS
MANKATO        SUNNY     28  18  64 NW14      30.14S WCI  17
NEW ULM        SUNNY     28  19  69 NW14      30.16R WCI  17
ST JAMES       SUNNY     34  23  64 NW14      30.17S WCI  24
FAIRMONT       SUNNY     34  16  47 NW18      30.14S WCI  23
GLENCOE        MOSUNNY   31  23  71 NW10G17   30.14S WCI  22
FARIBAULT      CLOUDY    30  19  64 NW12      30.12S WCI  21
OWATONNA       CLOUDY    28  21  74 NW13      30.12S WCI  18
WASECA         MOSUNNY   30  21  69 NW13      30.14S WCI  20
ALBERT LEA     MOSUNNY   30  21  69 NW14      30.12S WCI  20
$$
MNZ078>079-086>088-094>096-261700-
   Southeast Minnesota

CITY           SKY/WX    TMP DP  RH WIND       PRES   REMARKS
ROCHESTER      CLOUDY    28  21  75 NW18      30.08R WCI  15
RED WING       CLOUDY    32  16  51 N8G20     30.10R WCI  25
STANTON        CLOUDY    30  22  72 W10       30.10S WCI  21
DODGE CENTER   CLOUDY    28  21  74 NW15      30.09S WCI  17
WINONA         CLOUDY    34  23  64 N14       30.08R WCI  24
AUSTIN         SUNNY     28  21  74 NW15G22   30.10S WCI  17
PRESTON        CLOUDY    28  21  74 NW16      30.08R WCI  17
$$
ABBREVIATIONS USED IN REMARKS
   TC - TEMPERATURES IN CELSIUS
  WCI - WIND CHILL INDEX
   HX - HEAT INDEX
  VSB - VISIBILITY
$$



USA.gov is the U.S. government's official web portal to all federal, state and local government web resources and services.